Weather History for Storm Lake, IA

Change the Weather History Date:

Thursday, February 14, 2013

  Actual Average Record
Temperature  
Mean Temperature 27 °F -  
Max Temperature 37 °F 32 °F 55 °F (2005)
Min Temperature 17 °F 17 °F -9 °F (2007)
Degree Days  
Heating Degree Days 38    
Moisture  
Dew Point 24 °F    
Average Humidity 80    
Maximum Humidity 100    
Minimum Humidity 58    
Precipitation  
Precipitation 0.00 in - - ()
Sea Level Pressure  
Sea Level Pressure 29.93 in    
Wind  
Wind Speed 18 mph (NW)    
Max Wind Speed 26 mph    
Max Gust Speed 36 mph    
Visibility 10 miles    
Events      
Averages and records for this station are not official NWS values.
T = Trace of Precipitation, MM = Missing Value Source: NWS Daily Summary

Daily Weather History Graph

Daily Weather History Graph

Search for Another Location

Airport:

Trip Planner

Search our weather history database for the weather conditions in past years. The results will help you decide how hot, cold, wet, or windy it might be!

Date:

Astronomy

Feb. 14, 2013 Rise Set
Actual Time 7:18 AM CST 5:52 PM CST
Civil Twilight 6:49 AM CST 6:21 PM CST
Nautical Twilight 6:16 AM CST 6:54 PM CST
Astronomical Twilight 5:44 AM CST 7:26 PM CST
Moon 9:13 AM CST (2/14) 11:04 PM CST (2/14)
Length of Visible Light 11h 31m
Length of Day
10h 33m
Waxing Crescent, 22% of the Moon is Illuminated
Feb 14
Waxing Crescent
Feb 17
First Quarter
Feb 25
Full
Mar 4
Last Quarter
Mar 11
New

Hourly Weather History & Observations

Time (CST) Temp. Windchill Dew Point Humidity Pressure Visibility Wind Dir Wind Speed Gust Speed Precip Events Conditions
12:15 AM 33.8 °F 22.8 °F 32.0 °F 93% 29.68 in 10.0 mi WNW 18.4 mph - N/A   Clear
12:35 AM 33.8 °F 22.2 °F 32.0 °F 93% 29.69 in 10.0 mi WNW 20.7 mph - N/A   Clear
12:55 AM 33.8 °F 22.2 °F 32.0 °F 93% 29.69 in 10.0 mi WNW 20.7 mph - N/A   Partly Cloudy
1:15 AM 33.8 °F 22.2 °F 32.0 °F 93% 29.70 in 10.0 mi WNW 20.7 mph 29.9 mph N/A   Mostly Cloudy
1:35 AM 33.8 °F 21.6 °F 30.2 °F 87% 29.70 in 10.0 mi WNW 23.0 mph 31.1 mph N/A   Overcast
1:55 AM 33.8 °F 21.9 °F 32.0 °F 93% 29.71 in 10.0 mi WNW 21.9 mph 28.8 mph N/A   Overcast
2:15 AM 33.8 °F 21.6 °F 32.0 °F 93% 29.72 in 10.0 mi NW 23.0 mph 31.1 mph N/A   Overcast
2:35 AM 33.8 °F 22.2 °F 30.2 °F 87% 29.73 in 10.0 mi NW 20.7 mph 29.9 mph N/A   Overcast
2:55 AM 33.8 °F 21.6 °F 30.2 °F 87% 29.74 in 10.0 mi NW 23.0 mph 34.5 mph N/A   Overcast
3:15 AM 33.8 °F 21.9 °F 30.2 °F 87% 29.75 in 10.0 mi NW 21.9 mph - N/A   Overcast
3:35 AM 33.8 °F 22.5 °F 30.2 °F 87% 29.76 in 10.0 mi NW 19.6 mph 25.3 mph N/A   Overcast
3:55 AM 32.0 °F 18.9 °F 28.4 °F 87% 29.77 in 10.0 mi NW 24.2 mph 29.9 mph N/A   Overcast
4:15 AM 32.0 °F 19.5 °F 28.4 °F 87% 29.78 in 10.0 mi NW 21.9 mph 28.8 mph N/A   Overcast
4:35 AM 32.0 °F 21.2 °F 30.2 °F 93% 29.78 in 10.0 mi NNW 16.1 mph 25.3 mph N/A   Overcast
4:55 AM 32.0 °F 20.1 °F 28.4 °F 87% 29.79 in 10.0 mi NNW 19.6 mph 26.5 mph N/A   Overcast
5:15 AM 32.0 °F 20.5 °F 28.4 °F 87% 29.80 in 10.0 mi NNW 18.4 mph 29.9 mph N/A   Overcast
5:35 AM 30.2 °F 19.8 °F 28.4 °F 93% 29.81 in 10.0 mi NW 13.8 mph 20.7 mph N/A   Scattered Clouds
5:55 AM 30.2 °F 19.3 °F 26.6 °F 86% 29.81 in 10.0 mi NW 15.0 mph 20.7 mph N/A   Mostly Cloudy
6:15 AM 30.2 °F 18.9 °F 28.4 °F 93% 29.82 in 10.0 mi NNW 16.1 mph - N/A   Overcast
6:35 AM 30.2 °F 18.5 °F 28.4 °F 93% 29.83 in 10.0 mi NW 17.3 mph 26.5 mph N/A   Overcast
6:55 AM 30.2 °F 20.2 °F 28.4 °F 93% 29.83 in 10.0 mi NW 12.7 mph 20.7 mph N/A   Overcast
7:15 AM 28.4 °F 19.1 °F 26.6 °F 93% 29.84 in 10.0 mi NW 10.4 mph - N/A   Scattered Clouds
7:35 AM 28.4 °F 21.2 °F 26.6 °F 93% 29.85 in 10.0 mi WNW 6.9 mph - N/A   Partly Cloudy
7:55 AM 30.2 °F 23.4 °F 28.4 °F 93% 29.85 in 10.0 mi WNW 6.9 mph - N/A   Mostly Cloudy
8:15 AM 30.2 °F 21.9 °F 28.4 °F 93% 29.87 in 10.0 mi West 9.2 mph - N/A   Mostly Cloudy
8:35 AM 30.2 °F 20.2 °F 28.4 °F 93% 29.87 in 10.0 mi WNW 12.7 mph - N/A   Scattered Clouds
8:55 AM 30.2 °F 19.3 °F 30.2 °F 100% 29.88 in 10.0 mi West 15.0 mph - N/A   Mostly Cloudy
9:15 AM 32.0 °F 22.5 °F 30.2 °F 93% 29.87 in 10.0 mi West 12.7 mph - N/A   Overcast
9:35 AM 32.0 °F 21.6 °F 30.2 °F 93% 29.88 in 10.0 mi West 15.0 mph - N/A   Overcast
9:55 AM 32.0 °F 22.1 °F 30.2 °F 93% 29.89 in 10.0 mi West 13.8 mph - N/A   Overcast
10:15 AM 32.0 °F 22.1 °F 30.2 °F 93% 29.89 in 10.0 mi West 13.8 mph - N/A   Overcast
10:35 AM 32.0 °F 22.5 °F 30.2 °F 93% 29.89 in 10.0 mi West 12.7 mph - N/A   Overcast
10:55 AM 32.0 °F 22.1 °F 32.0 °F 100% 29.89 in 8.0 mi West 13.8 mph - N/A   Overcast
11:15 AM 33.8 °F 24.3 °F 32.0 °F 93% 29.89 in 9.0 mi West 13.8 mph - N/A   Overcast
11:35 AM 35.6 °F 24.8 °F 30.2 °F 81% 29.89 in 10.0 mi NW 19.6 mph 25.3 mph N/A   Mostly Cloudy
11:55 AM 37.4 °F 26.4 °F 28.4 °F 70% 29.89 in 10.0 mi NW 23.0 mph - N/A   Mostly Cloudy
12:15 PM 35.6 °F 23.4 °F 26.6 °F 70% 29.90 in 10.0 mi NW 25.3 mph 31.1 mph N/A   Overcast
12:35 PM 37.4 °F 26.4 °F 28.4 °F 70% 29.90 in 10.0 mi NW 23.0 mph 29.9 mph N/A   Mostly Cloudy
12:55 PM 35.6 °F 24.2 °F 26.6 °F 70% 29.90 in 10.0 mi NW 21.9 mph 31.1 mph N/A   Mostly Cloudy
1:15 PM 35.6 °F 23.2 °F 26.6 °F 70% 29.90 in 10.0 mi NW 26.5 mph - N/A   Mostly Cloudy
1:35 PM 35.6 °F 24.0 °F 26.6 °F 70% 29.90 in 10.0 mi NW 23.0 mph - N/A   Overcast
1:55 PM 33.8 °F 22.2 °F 28.4 °F 81% 29.91 in 10.0 mi NW 20.7 mph 35.7 mph N/A   Mostly Cloudy
2:15 PM 35.6 °F 23.4 °F 28.4 °F 75% 29.92 in 10.0 mi NNW 25.3 mph 34.5 mph N/A   Mostly Cloudy
2:35 PM 33.8 °F 22.8 °F 28.4 °F 81% 29.94 in 10.0 mi NW 18.4 mph 25.3 mph N/A   Overcast
2:55 PM 33.8 °F 22.8 °F 28.4 °F 81% 29.95 in 10.0 mi NNW 18.4 mph 26.5 mph N/A   Mostly Cloudy
3:15 PM 33.8 °F 23.9 °F 28.4 °F 81% 29.96 in 10.0 mi NNW 15.0 mph 23.0 mph N/A   Mostly Cloudy
3:35 PM 32.0 °F 21.2 °F 26.6 °F 80% 29.97 in 10.0 mi North 16.1 mph 25.3 mph N/A   Overcast
3:55 PM 32.0 °F 20.8 °F 26.6 °F 80% 29.99 in 10.0 mi North 17.3 mph - N/A   Mostly Cloudy
4:15 PM 32.0 °F 22.5 °F 24.8 °F 75% 30.00 in 10.0 mi North 12.7 mph 20.7 mph N/A   Overcast
4:35 PM 32.0 °F 21.6 °F 24.8 °F 75% 30.02 in 10.0 mi North 15.0 mph 21.9 mph N/A   Overcast
4:55 PM 30.2 °F 18.5 °F 24.8 °F 80% 30.02 in 10.0 mi North 17.3 mph 24.2 mph N/A   Overcast
5:15 PM 30.2 °F 18.9 °F 23.0 °F 75% 30.03 in - North 16.1 mph 24.2 mph N/A   Overcast
5:35 PM 30.2 °F 18.9 °F 23.0 °F 75% 30.04 in 10.0 mi North 16.1 mph - N/A   Overcast
5:55 PM 28.4 °F 15.4 °F 21.2 °F 74% 30.06 in 10.0 mi North 19.6 mph 27.6 mph N/A   Overcast
6:15 PM 28.4 °F 16.2 °F 19.4 °F 69% 30.07 in 10.0 mi NNW 17.3 mph 23.0 mph N/A   Overcast
6:35 PM 26.6 °F 13.4 °F 17.6 °F 69% 30.08 in 10.0 mi North 18.4 mph - N/A   Overcast
6:55 PM 26.6 °F 13.1 °F 17.6 °F 69% 30.09 in 10.0 mi North 19.6 mph - N/A   Mostly Cloudy
7:15 PM 24.8 °F 10.3 °F 15.8 °F 69% 30.10 in 10.0 mi North 20.7 mph - N/A   Partly Cloudy
7:35 PM 23.0 °F 8.3 °F 12.2 °F 63% 30.11 in 10.0 mi North 19.6 mph 28.8 mph N/A   Partly Cloudy
7:55 PM 23.0 °F 9.6 °F 14.0 °F 68% 30.12 in 10.0 mi North 16.1 mph 26.5 mph N/A   Scattered Clouds
8:15 PM 23.0 °F 7.2 °F 12.2 °F 63% 30.13 in 10.0 mi NNW 23.0 mph 29.9 mph N/A   Overcast
8:35 PM 23.0 °F 8.3 °F 10.4 °F 59% 30.15 in 10.0 mi North 19.6 mph 31.1 mph N/A   Overcast
8:55 PM 21.2 °F 7.8 °F 12.2 °F 68% 30.16 in 10.0 mi NNW 15.0 mph 24.2 mph N/A   Overcast
9:15 PM 21.2 °F 7.8 °F 10.4 °F 63% 30.17 in 10.0 mi NNW 15.0 mph 27.6 mph N/A   Overcast
9:35 PM 21.2 °F 6.8 °F 10.4 °F 63% 30.17 in 10.0 mi NNW 17.3 mph - N/A   Mostly Cloudy
9:55 PM 19.4 °F 5.0 °F 8.6 °F 63% 30.17 in 10.0 mi NNW 16.1 mph 24.2 mph N/A   Clear
10:15 PM 19.4 °F 4.5 °F 10.4 °F 68% 30.18 in 10.0 mi NNW 17.3 mph - N/A   Clear
10:35 PM 19.4 °F 6.0 °F 10.4 °F 68% 30.19 in 10.0 mi NNW 13.8 mph 19.6 mph N/A   Clear
10:55 PM 17.6 °F 2.7 °F 6.8 °F 63% 30.19 in 10.0 mi NNW 16.1 mph 23.0 mph N/A   Clear
11:15 PM 17.6 °F 2.7 °F 5.0 °F 58% 30.20 in - NNW 16.1 mph - N/A   Clear
11:35 PM 17.6 °F 5.0 °F 5.0 °F 58% 30.20 in 10.0 mi NNW 11.5 mph - N/A   Clear
11:55 PM 17.6 °F 3.7 °F 5.0 °F 58% 30.21 in 10.0 mi NW 13.8 mph - N/A   Clear